2FAST EGNT-EPPO

Flight info

Callsign 2FAST
Flight time 2h 0m
Altitude 35000
Route GIRLI P18 GASKO Y250 KEFTE UY250 UPTON UL975 GOLES Y70 ABTOS N110 DOLAS L603 LAMSO DCT NOMKA L620 BIRKA Z21 GALMA N858 SUBIX L980 KELOD
Aircraft B738/M-SDE2E3FGHIRWXY/LB1

Departure

Time 2026-05-04 08:29
Airport Newcastle International Airport (EGNT)

Arrival

Time 2026-05-04 10:30
Airport Poznań-Ławica Airport (EPPO)
Time Latitude Longitude Altitude Speed Heading
2026-05-04 08:04 55.03747 -1.70760 269 ft 0 kts 184°
2026-05-04 08:19 55.03755 -1.70759 269 ft 4 kts 184°
2026-05-04 08:20 55.03777 -1.70756 268 ft 3 kts 184°
2026-05-04 08:20 55.03801 -1.70761 267 ft 4 kts 141°
2026-05-04 08:20 55.03810 -1.70794 267 ft 5 kts 94°
2026-05-04 08:20 55.03811 -1.70806 267 ft 2 kts 94°
2026-05-04 08:21 55.03811 -1.70805 267 ft 0 kts 94°
2026-05-04 08:24 55.03811 -1.70803 267 ft 1 kts 94°
2026-05-04 08:24 55.03808 -1.70740 267 ft 10 kts 94°
2026-05-04 08:24 55.03800 -1.70573 267 ft 18 kts 93°
2026-05-04 08:24 55.03783 -1.70318 267 ft 24 kts 97°
2026-05-04 08:25 55.03775 -1.70015 269 ft 24 kts 86°
2026-05-04 08:25 55.03801 -1.69731 269 ft 23 kts 75°
2026-05-04 08:25 55.03850 -1.69468 267 ft 23 kts 67°
2026-05-04 08:25 55.03912 -1.69225 265 ft 22 kts 65°
2026-05-04 08:26 55.03974 -1.68986 263 ft 21 kts 65°
2026-05-04 08:27 55.04321 -1.67426 247 ft 0 kts 118°
2026-05-04 08:28 55.04301 -1.67390 247 ft 9 kts 144°
2026-05-04 08:28 55.04215 -1.67408 248 ft 18 kts 231°
2026-05-04 08:28 55.04195 -1.67465 248 ft 0 kts 244°
2026-05-04 08:28 55.04122 -1.67730 249 ft 59 kts 245°
2026-05-04 08:29 55.03852 -1.68748 260 ft 123 kts 244°
2026-05-04 08:29 55.03408 -1.70393 306 ft 172 kts 244°
2026-05-04 08:29 55.02913 -1.72236 1168 ft 158 kts 245°
2026-05-04 08:31 54.95350 -1.75912 4321 ft 260 kts 161°
2026-05-04 08:33 54.82149 -1.77286 8042 ft 287 kts 189°
2026-05-04 08:33 54.80182 -1.77829 8039 ft 285 kts 189°
2026-05-04 08:35 54.66461 -1.81762 9384 ft 288 kts 191°
2026-05-04 08:35 54.64486 -1.82403 10083 ft 290 kts 191°
2026-05-04 08:35 54.62463 -1.83055 10446 ft 305 kts 191°
2026-05-04 08:35 54.60312 -1.83746 10603 ft 324 kts 191°
2026-05-04 08:37 54.45273 -1.88484 12691 ft 385 kts 191°
2026-05-04 08:37 54.42631 -1.89309 13251 ft 388 kts 191°
2026-05-04 08:37 54.39962 -1.90143 13819 ft 390 kts 191°
2026-05-04 08:38 54.37285 -1.90981 14364 ft 393 kts 191°
2026-05-04 08:38 54.34580 -1.91829 14906 ft 396 kts 191°
2026-05-04 08:38 54.31864 -1.92680 15443 ft 399 kts 191°
2026-05-04 08:40 54.13341 -1.86155 18847 ft 421 kts 148°
2026-05-04 08:40 54.10848 -1.83499 19266 ft 423 kts 149°
2026-05-04 08:40 54.08335 -1.80862 19701 ft 425 kts 149°
2026-05-04 08:41 54.05799 -1.78227 20119 ft 428 kts 149°
2026-05-04 08:41 54.03239 -1.75580 20528 ft 430 kts 149°
2026-05-04 08:41 54.00670 -1.72928 20908 ft 433 kts 149°
2026-05-04 08:41 53.98089 -1.70264 21281 ft 435 kts 149°
2026-05-04 08:42 53.95492 -1.67585 21656 ft 437 kts 149°
2026-05-04 08:42 53.92884 -1.64897 22020 ft 440 kts 149°
2026-05-04 08:42 53.90299 -1.62236 22387 ft 441 kts 149°
2026-05-04 08:42 53.87633 -1.59495 22735 ft 443 kts 149°
2026-05-04 08:43 53.85023 -1.56816 23061 ft 445 kts 149°
2026-05-04 08:43 53.82369 -1.54096 23401 ft 447 kts 149°
2026-05-04 08:43 53.79705 -1.51369 23732 ft 448 kts 149°
2026-05-04 08:43 53.77026 -1.48631 24041 ft 450 kts 149°
2026-05-04 08:44 53.74339 -1.45888 24337 ft 452 kts 149°
2026-05-04 08:44 53.71638 -1.43138 24627 ft 454 kts 149°
2026-05-04 08:46 53.58683 -1.15717 26405 ft 468 kts 85°
2026-05-04 08:46 53.59005 -1.10250 26654 ft 469 kts 84°
2026-05-04 08:46 53.59231 -1.04759 26830 ft 472 kts 90°
2026-05-04 08:46 53.58819 -0.99275 26966 ft 474 kts 108°
2026-05-04 08:47 53.57462 -0.94245 27214 ft 472 kts 121°
2026-05-04 08:47 53.55752 -0.89515 27455 ft 473 kts 122°
2026-05-04 08:47 53.54125 -0.84710 27633 ft 475 kts 118°
2026-05-04 08:47 53.52635 -0.79729 27821 ft 477 kts 116°
2026-05-04 08:48 53.51223 -0.74696 28093 ft 476 kts 116°
2026-05-04 08:48 53.49829 -0.69663 28418 ft 474 kts 116°
2026-05-04 08:48 53.48431 -0.64668 28722 ft 473 kts 116°
2026-05-04 08:48 53.47033 -0.59747 28972 ft 472 kts 116°
2026-05-04 08:49 53.45609 -0.54775 29187 ft 473 kts 117°
2026-05-04 08:50 53.37037 -0.25067 30715 ft 470 kts 117°
2026-05-04 08:50 53.35612 -0.20155 30960 ft 469 kts 117°
2026-05-04 08:51 53.34202 -0.15305 31197 ft 469 kts 117°
2026-05-04 08:51 53.32776 -0.10404 31426 ft 469 kts 117°
2026-05-04 08:51 53.31346 -0.05501 31633 ft 469 kts 117°
2026-05-04 08:51 53.29914 -0.00596 31868 ft 469 kts 116°
2026-05-04 08:52 53.28702 0.04459 32073 ft 470 kts 109°
2026-05-04 08:52 53.27956 0.09813 32177 ft 475 kts 102°
2026-05-04 08:52 53.26904 0.20809 32368 ft 481 kts 101°
2026-05-04 08:53 53.26362 0.26300 32640 ft 478 kts 102°
2026-05-04 08:54 53.16661 0.60023 34061 ft 464 kts 131°
2026-05-04 08:55 53.14661 0.64243 34257 ft 464 kts 131°
2026-05-04 08:55 53.12669 0.68484 34460 ft 464 kts 131°
2026-05-04 08:55 53.10688 0.72732 34632 ft 464 kts 131°
2026-05-04 08:55 53.08711 0.76981 34773 ft 465 kts 131°
2026-05-04 08:57 52.97002 1.06870 35021 ft 474 kts 106°
2026-05-04 09:01 52.88171 1.82241 35023 ft 479 kts 105°
2026-05-04 09:01 52.86846 1.93063 35019 ft 480 kts 105°
2026-05-04 09:02 52.85518 2.03821 35017 ft 480 kts 105°
2026-05-04 09:02 52.84170 2.14659 35022 ft 481 kts 105°
2026-05-04 09:03 52.82810 2.25497 35020 ft 481 kts 105°
2026-05-04 09:03 52.81439 2.36350 35018 ft 481 kts 105°
2026-05-04 09:04 52.80061 2.47182 35024 ft 481 kts 105°
2026-05-04 09:04 52.78669 2.57993 35019 ft 481 kts 106°
2026-05-04 09:05 52.77274 2.68726 35022 ft 481 kts 106°
2026-05-04 09:05 52.75861 2.79538 35017 ft 481 kts 106°
2026-05-04 09:06 52.74467 2.90341 35016 ft 481 kts 106°
2026-05-04 09:08 52.68653 3.33366 35212 ft 481 kts 107°
2026-05-04 09:08 52.67908 3.38730 35461 ft 479 kts 107°
2026-05-04 09:08 52.67166 3.44067 35724 ft 477 kts 107°
2026-05-04 09:08 52.66426 3.49379 35944 ft 475 kts 107°
2026-05-04 09:09 52.65681 3.54703 36098 ft 476 kts 107°
2026-05-04 09:09 52.64934 3.60014 36239 ft 476 kts 107°
2026-05-04 09:09 52.64185 3.65325 36386 ft 476 kts 107°
2026-05-04 09:09 52.63433 3.70633 36538 ft 476 kts 107°
2026-05-04 09:10 52.62680 3.75937 36751 ft 475 kts 107°
2026-05-04 09:10 52.61939 3.81143 37056 ft 471 kts 107°
2026-05-04 09:10 52.61194 3.86363 37386 ft 466 kts 107°
2026-05-04 09:10 52.60443 3.91608 37592 ft 465 kts 107°
2026-05-04 09:11 52.59706 3.96722 37641 ft 467 kts 107°
2026-05-04 09:11 52.58196 4.07137 37827 ft 468 kts 107°
2026-05-04 09:11 52.57438 4.12346 37990 ft 467 kts 107°
2026-05-04 09:12 52.56681 4.17542 38125 ft 467 kts 107°
2026-05-04 09:14 52.50545 4.58972 38984 ft 466 kts 108°
2026-05-04 09:14 52.48997 4.69252 38986 ft 467 kts 108°
2026-05-04 09:15 52.47428 4.79608 38986 ft 467 kts 108°
2026-05-04 09:15 52.45851 4.89951 38992 ft 467 kts 108°
2026-05-04 09:17 52.38637 5.36430 38995 ft 469 kts 109°
2026-05-04 09:18 52.37002 5.46786 38993 ft 470 kts 109°
2026-05-04 09:18 52.35354 5.57153 38993 ft 471 kts 109°
2026-05-04 09:19 52.33696 5.67525 38995 ft 471 kts 109°
2026-05-04 09:19 52.32038 5.77828 38993 ft 472 kts 109°
2026-05-04 09:20 52.30359 5.88202 38993 ft 472 kts 109°
2026-05-04 09:20 52.28666 5.98593 38993 ft 473 kts 109°
2026-05-04 09:21 52.26962 6.08993 38986 ft 473 kts 110°
2026-05-04 09:21 52.25249 6.19378 38994 ft 473 kts 110°
2026-05-04 09:22 52.23539 6.29685 38994 ft 474 kts 110°
2026-05-04 09:22 52.21808 6.40056 38986 ft 474 kts 110°
2026-05-04 09:23 52.20070 6.50412 38991 ft 473 kts 110°
2026-05-04 09:23 52.18319 6.60774 38992 ft 473 kts 110°
2026-05-04 09:25 52.11239 7.02073 38988 ft 474 kts 110°
2026-05-04 09:26 52.09442 7.12400 38993 ft 475 kts 110°
2026-05-04 09:26 52.07634 7.22737 38992 ft 475 kts 110°
2026-05-04 09:27 52.05817 7.33061 38997 ft 476 kts 110°
2026-05-04 09:27 52.03985 7.43407 38990 ft 476 kts 110°
2026-05-04 09:28 52.02140 7.53773 38991 ft 477 kts 110°
2026-05-04 09:28 52.00301 7.64042 38994 ft 477 kts 110°
2026-05-04 09:29 51.98437 7.74394 38994 ft 478 kts 110°
2026-05-04 09:29 51.96564 7.84738 38990 ft 478 kts 110°
2026-05-04 09:30 51.94678 7.95093 38994 ft 478 kts 111°
2026-05-04 09:30 51.92784 8.05434 38991 ft 478 kts 111°
2026-05-04 09:31 51.90895 8.15691 38983 ft 478 kts 111°
2026-05-04 09:31 51.88984 8.26009 38992 ft 478 kts 111°
2026-05-04 09:32 51.87065 8.36311 38991 ft 477 kts 111°
2026-05-04 09:34 51.79327 8.77293 39014 ft 475 kts 111°
2026-05-04 09:34 51.77379 8.87468 39022 ft 474 kts 111°
2026-05-04 09:35 51.75422 8.97636 39017 ft 474 kts 111°
2026-05-04 09:35 51.73472 9.07716 39019 ft 473 kts 111°
2026-05-04 09:37 51.65549 9.48132 39019 ft 473 kts 111°
2026-05-04 09:38 51.63548 9.58211 39013 ft 473 kts 111°
2026-05-04 09:38 51.61535 9.68291 39020 ft 473 kts 111°
2026-05-04 09:39 51.59512 9.78371 39019 ft 473 kts 111°
2026-05-04 09:39 51.57481 9.88443 39021 ft 474 kts 111°
2026-05-04 09:40 51.55441 9.98506 39027 ft 474 kts 111°
2026-05-04 09:40 51.53386 10.08594 39013 ft 474 kts 111°
2026-05-04 09:42 51.45105 10.48739 39010 ft 474 kts 111°
2026-05-04 09:43 51.43308 10.58928 39023 ft 475 kts 107°
2026-05-04 09:43 51.41742 10.69217 39023 ft 475 kts 107°
2026-05-04 09:44 51.40138 10.79399 39020 ft 474 kts 107°
2026-05-04 09:46 51.38894 11.19656 39017 ft 478 kts 88°
2026-05-04 09:46 51.39286 11.30292 39022 ft 478 kts 89°
2026-05-04 09:47 51.39858 11.40903 39005 ft 479 kts 79°
2026-05-04 09:49 51.51319 11.73131 39016 ft 480 kts 56°
2026-05-04 09:49 51.53158 11.77603 39012 ft 480 kts 56°
2026-05-04 09:51 51.65725 12.09394 39014 ft 482 kts 63°
2026-05-04 09:51 51.68625 12.19136 39021 ft 483 kts 65°
2026-05-04 09:52 51.71519 12.28915 39019 ft 483 kts 64°
2026-05-04 09:52 51.74469 12.38657 39020 ft 483 kts 64°
2026-05-04 09:53 51.77420 12.48408 39017 ft 483 kts 64°
2026-05-04 09:53 51.80352 12.58185 39011 ft 483 kts 64°
2026-05-04 09:54 51.83269 12.67960 39008 ft 483 kts 64°
2026-05-04 09:54 51.86158 12.77677 38996 ft 482 kts 65°
2026-05-04 09:55 51.89058 12.87462 39004 ft 481 kts 65°
2026-05-04 09:55 51.91945 12.97243 39001 ft 480 kts 65°
2026-05-04 09:56 51.94818 13.07004 39000 ft 479 kts 65°
2026-05-04 09:56 51.97685 13.16777 39002 ft 478 kts 65°
2026-05-04 09:57 52.00528 13.26511 38993 ft 477 kts 65°
2026-05-04 09:57 52.03344 13.36193 38983 ft 477 kts 65°
2026-05-04 09:58 52.06169 13.45945 39003 ft 476 kts 65°
2026-05-04 09:58 52.08984 13.55703 38994 ft 476 kts 65°
2026-05-04 10:00 52.20185 13.94757 38994 ft 477 kts 66°
2026-05-04 10:02 52.29932 14.29386 36978 ft 483 kts 66°
2026-05-04 10:04 52.37305 14.65675 32040 ft 489 kts 97°
2026-05-04 10:04 52.36804 14.71172 31306 ft 487 kts 103°
2026-05-04 10:04 52.36174 14.76628 30530 ft 489 kts 103°
2026-05-04 10:04 52.35522 14.82098 29727 ft 491 kts 103°
2026-05-04 10:05 52.34885 14.87518 28884 ft 492 kts 103°
2026-05-04 10:05 52.34251 14.93044 27981 ft 495 kts 103°
2026-05-04 10:05 52.33627 14.98596 27032 ft 497 kts 102°
2026-05-04 10:05 52.33008 15.04165 26012 ft 499 kts 102°
2026-05-04 10:06 52.32386 15.09778 25036 ft 501 kts 102°
2026-05-04 10:06 52.31768 15.15347 24314 ft 496 kts 102°
2026-05-04 10:06 52.31153 15.20861 23574 ft 491 kts 103°
2026-05-04 10:08 52.27524 15.52749 19194 ft 458 kts 103°
2026-05-04 10:08 52.26945 15.57768 18486 ft 442 kts 103°
2026-05-04 10:08 52.26387 15.62621 17807 ft 428 kts 103°
2026-05-04 10:08 52.25843 15.67345 17149 ft 418 kts 104°
2026-05-04 10:09 52.25310 15.71950 16498 ft 408 kts 104°
2026-05-04 10:09 52.24785 15.76473 15873 ft 405 kts 104°
2026-05-04 10:09 52.24247 15.81055 15255 ft 420 kts 104°
2026-05-04 10:09 52.23690 15.85792 14574 ft 424 kts 104°
2026-05-04 10:10 52.23393 15.90515 13785 ft 417 kts 90°
2026-05-04 10:10 52.23665 15.95179 13032 ft 407 kts 86°
2026-05-04 10:10 52.23980 15.99703 12390 ft 396 kts 87°
2026-05-04 10:10 52.24276 16.04125 11793 ft 387 kts 88°
2026-05-04 10:11 52.24549 16.08455 11241 ft 380 kts 88°
2026-05-04 10:11 52.24798 16.12638 11142 ft 376 kts 88°
2026-05-04 10:11 52.25043 16.16956 10988 ft 384 kts 88°
2026-05-04 10:11 52.25282 16.21197 10796 ft 364 kts 88°
2026-05-04 10:12 52.25508 16.25198 10638 ft 344 kts 88°
2026-05-04 10:12 52.25718 16.28973 10492 ft 325 kts 88°
2026-05-04 10:12 52.25916 16.32568 10368 ft 310 kts 88°
2026-05-04 10:12 52.26103 16.36025 10239 ft 302 kts 88°
2026-05-04 10:13 52.26285 16.39409 10131 ft 299 kts 88°
2026-05-04 10:13 52.26467 16.42823 10028 ft 303 kts 87°
2026-05-04 10:13 52.26650 16.46222 9768 ft 297 kts 87°
2026-05-04 10:13 52.26828 16.49542 9470 ft 289 kts 87°
2026-05-04 10:14 52.26998 16.52735 9193 ft 282 kts 86°
2026-05-04 10:14 52.27082 16.55884 8909 ft 274 kts 100°
2026-05-04 10:16 52.22917 16.77603 8957 ft 294 kts 110°
2026-05-04 10:16 52.22308 16.80740 8957 ft 294 kts 110°
2026-05-04 10:16 52.21689 16.83924 8957 ft 294 kts 110°
2026-05-04 10:16 52.21094 16.87116 8943 ft 295 kts 103°
2026-05-04 10:17 52.21117 16.90450 8932 ft 297 kts 76°
2026-05-04 10:17 52.22049 16.93457 8772 ft 301 kts 48°
2026-05-04 10:19 52.27088 17.10686 7382 ft 259 kts 111°
2026-05-04 10:19 52.26507 17.13491 7189 ft 261 kts 111°
2026-05-04 10:19 52.25941 17.16283 6998 ft 262 kts 110°
2026-05-04 10:19 52.25372 17.19119 6788 ft 264 kts 110°
2026-05-04 10:20 52.24804 17.21970 6606 ft 264 kts 110°
2026-05-04 10:20 52.24238 17.24827 6394 ft 264 kts 110°
2026-05-04 10:20 52.23678 17.27657 6204 ft 259 kts 109°
2026-05-04 10:20 52.23425 17.30528 5967 ft 256 kts 82°
2026-05-04 10:21 52.24079 17.33137 5778 ft 245 kts 49°
2026-05-04 10:21 52.25347 17.34890 5618 ft 236 kts 25°
2026-05-04 10:21 52.26843 17.35891 5465 ft 236 kts 15°
2026-05-04 10:21 52.28418 17.36695 5297 ft 237 kts
2026-05-04 10:22 52.31360 17.35397 4940 ft 220 kts 311°
2026-05-04 10:22 52.32183 17.33356 4787 ft 214 kts 289°
2026-05-04 10:22 52.32673 17.31066 4635 ft 214 kts 285°
2026-05-04 10:23 52.33120 17.28741 4476 ft 215 kts 285°
2026-05-04 10:23 52.33566 17.26428 4307 ft 209 kts 285°
2026-05-04 10:25 52.36466 17.12104 3324 ft 179 kts 284°
2026-05-04 10:25 52.36807 17.10190 3165 ft 172 kts 285°
2026-05-04 10:25 52.37174 17.08331 3045 ft 171 kts 285°
2026-05-04 10:25 52.37535 17.06484 3027 ft 168 kts 286°
2026-05-04 10:26 52.37878 17.04689 2812 ft 165 kts 284°
2026-05-04 10:26 52.38208 17.02939 2639 ft 160 kts 285°
2026-05-04 10:26 52.38545 17.01186 2439 ft 163 kts 285°
2026-05-04 10:26 52.38876 16.99455 2223 ft 158 kts 286°
2026-05-04 10:27 52.39194 16.97774 2002 ft 152 kts 285°
2026-05-04 10:27 52.39502 16.96171 1816 ft 144 kts 286°
2026-05-04 10:27 52.39796 16.94587 1646 ft 147 kts 287°
2026-05-04 10:27 52.40106 16.93009 1440 ft 141 kts 286°
2026-05-04 10:28 52.40402 16.91472 1234 ft 144 kts 286°
2026-05-04 10:28 52.40702 16.89914 1055 ft 144 kts 286°
2026-05-04 10:28 52.41002 16.88349 870 ft 144 kts 286°
2026-05-04 10:28 52.41303 16.86786 675 ft 143 kts 286°
2026-05-04 10:29 52.41604 16.85221 488 ft 145 kts 287°
2026-05-04 10:29 52.41907 16.83648 298 ft 141 kts 287°
2026-05-04 10:29 52.42168 16.82290 289 ft 104 kts 287°
2026-05-04 10:29 52.42343 16.81379 288 ft 67 kts 288°
2026-05-04 10:30 52.42444 16.80859 292 ft 29 kts 287°
2026-05-04 10:30 52.42428 16.80593 287 ft 25 kts 200°
2026-05-04 10:30 52.42307 16.80708 287 ft 27 kts 106°
2026-05-04 10:30 52.42246 16.81010 287 ft 26 kts 108°
2026-05-04 10:31 52.42194 16.81275 287 ft 23 kts 107°
2026-05-04 10:31 52.42146 16.81523 287 ft 23 kts 108°
2026-05-04 10:32 52.41884 16.82868 287 ft 19 kts 119°
2026-05-04 10:33 52.41760 16.82871 287 ft 21 kts 197°
2026-05-04 10:33 52.41647 16.82975 287 ft 24 kts 101°
2026-05-04 10:33 52.41625 16.83059 287 ft 6 kts 162°
2026-05-04 10:33 52.41576 16.83057 287 ft 6 kts 192°
2026-05-04 10:34 52.41575 16.83056 287 ft 0 kts 192°